Tracking 23752 objects as of 24-Oct-2021
HD Live streaming from Space Station
objects crossing your sky now

COSMOS 1375 DEB

Track COSMOS 1375 DEB now!
10-day predictions


NORAD ID: 17799
Int'l Code: 1982-055AR
Perigee: 904.2 km
Apogee: 946.7 km
Inclination: 65.8 °
Period: 103.4 minutes
Semi major axis: 7296 km
RCS: 0.043 m2 (small)
Launch date: June 6, 1982
Source: Commonwealth of Independent States (former USSR) (CIS)
Launch site: PLESETSK MISSILE AND SPACE COMPLEX (PKMTR)

Note: This is SATELLITE DEBRIS
aabbcc
Your satellite tracking list
Your tracking list is empty




NASA's NSSDC Master Catalog

Two Line Element Set (TLE):
1 17799U 82055AR  21296.22084425  .00000093  00000-0  13610-3 0  9996
2 17799  65.8393 331.5836 0029113 204.9519 226.1414 13.92959083823107
Source of the keplerian elements: AFSPC